{"data":{"norad_id":60594,"epoch":"2026-05-24T17:53:03.445728Z","epoch_age_seconds":94306,"freshness":"FRESH","line1":"1 60594U 24150M   26144.74517877  .00000207  00000+0  17275-4 0  9993","line2":"2 60594  53.1617 313.1993 0001091  82.4709 277.6418 15.34388656 99696","mean_motion":15.34388656,"eccentricity":0.0001091,"inclination_deg":53.1617,"raan_deg":313.1993,"arg_perigee_deg":82.4709,"mean_anomaly_deg":277.6418,"bstar":1.7275e-5,"rev_number":9969,"period_min":93.848451913998,"perigee_km":461.99061782475,"apogee_km":463.4832965222,"semimajor_km":6840.8739571735,"source":"CELESTRAK","updated_at":"2026-05-25T13:38:19.280642Z"}}